DW2047 Weather Reports


time (UTC)temp
F
wind
direction
speed
knots
gust
knots
rain 1hr
in
rain 24hr
in
rain mn
in
humidity
%
barometer
mb
20260905200048 97 74 1.7 7.8 0.00 0.00 0.00 42 1011.6
20260905195520 97 125 2.6 10.4 0.00 0.00 0.00 43 1011.7
20260905195101 97 176 1.7 10.4 0.00 0.00 0.00 41 1011.8
20260905194540 98 132 3.5 7.8 0.00 0.00 0.00 40 1011.8
20260905194014 97 261 1.7 6.1 0.00 0.00 0.00 41 1011.9
20260905193553 97 187 0.9 4.3 0.00 0.00 0.00 43 1012.0
20260905193030 96 196 0.9 8.7 0.00 0.00 0.00 44 1012.1
20260905192506 97 96 4.3 8.7 0.00 0.00 0.00 44 1012.2
20260905192047 96 170 0.9 7.0 0.00 0.00 0.00 46 1012.2
20260905191526 96 167 1.7 7.0 0.00 0.00 0.00 46 1012.3
20260905191106 95 265 1.7 3.5 0.00 0.00 0.00 46 1012.4
20260905190539 95 209 0.0 7.8 0.00 0.00 0.00 47 1012.5
20260905190014 95 133 3.5 7.8 0.00 0.00 0.00 45 1012.7
20260905185558 95 178 4.3 8.7 0.00 0.00 0.00 45 1012.7
20260905185030 95 252 0.9 7.8 0.00 0.00 0.00 48 1012.9
20260905184516 95 130 2.6 9.6 0.00 0.00 0.00 48 1013.0
20260905184046 95 136 3.5 9.6 0.00 0.00 0.00 49 1013.1
20260905183525 94 88 2.6 7.0 0.00 0.00 0.00 49 1013.1
20260905183118 94 32 2.6 5.2 0.00 0.00 0.00 50 1013.1
20260905182539 94 211 0.9 3.5 0.00 0.00 0.00 47 1013.1
20260905182015 94 143 0.9 7.0 0.00 0.00 0.00 48 1013.3
20260905181554 94 188 1.7 7.0 0.00 0.00 0.00 50 1013.3
20260905181031 93 140 1.7 4.3 0.00 0.00 0.00 51 1013.5
20260905180508 93 119 1.7 9.6 0.00 0.00 0.00 53 1013.5
20260905180047 93 155 4.3 9.6 0.00 0.00 0.00 50 1013.7
20260905175523 93 157 3.5 9.6 0.00 0.00 0.00 48 1013.8
20260905175001 92 132 1.7 8.7 0.00 0.00 0.00 51 1013.8
20260905174541 92 167 3.5 8.7 0.00 0.00 0.00 50 1014.0
20260905174016 92 146 1.7 8.7 0.00 0.00 0.00 50 1014.0
20260905173557 92 131 4.3 7.8 0.00 0.00 0.00 51 1014.0
20260905173031 92 217 0.9 6.1 0.00 0.00 0.00 54 1014.0
20260905172508 92 162 0.9 8.7 0.00 0.00 0.00 56 1014.1
20260905172050 91 186 3.5 8.7 0.00 0.00 0.00 56 1014.2
20260905171527 91 228 0.0 7.0 0.00 0.00 0.00 55 1014.2
20260905171106 91 171 1.7 7.0 0.00 0.00 0.00 56 1014.3
20260905170542 91 136 2.6 6.1 0.00 0.00 0.00 58 1014.3
20260905170017 90 145 3.5 8.7 0.00 0.00 0.00 58 1014.4
20260905165602 90 161 4.3 8.7 0.00 0.00 0.00 57 1014.5
20260905165037 90 189 0.0 7.8 0.00 0.00 0.00 58 1014.4
20260905164511 89 173 2.6 7.8 0.00 0.00 0.00 61 1014.5
20260905164054 89 172 0.9 7.0 0.00 0.00 0.00 58 1014.5
20260905163532 89 225 2.6 7.0 0.00 0.00 0.00 59 1014.5
20260905163009 89 163 1.7 7.8 0.00 0.00 0.00 59 1014.6
20260905162554 89 248 1.7 7.8 0.00 0.00 0.00 60 1014.5
20260905162031 89 153 3.5 8.7 0.00 0.00 0.00 61 1014.5
20260905161518 88 200 3.5 8.7 0.00 0.00 0.00 62 1014.6
20260905161059 88 123 1.7 7.8 0.00 0.00 0.00 63 1014.5
20260905160535 88 148 3.5 7.8 0.00 0.00 0.00 64 1014.4
20260905160017 87 148 1.7 7.8 0.00 0.00 0.00 64 1014.5
20260905155553 87 132 2.6 10.4 0.00 0.00 0.00 65 1014.4
20260905155029 87 168 2.6 10.4 0.00 0.00 0.00 65 1014.4
20260905154502 87 137 1.7 7.0 0.00 0.00 0.00 67 1014.4
20260905154044 86 200 0.9 7.0 0.00 0.00 0.00 67 1014.4
20260905153521 86 225 1.7 9.6 0.00 0.00 0.00 68 1014.4
20260905153110 86 150 3.5 9.6 0.00 0.00 0.00 69 1014.5
20260905152536 86 139 4.3 7.8 0.00 0.00 0.00 70 1014.4
20260905152012 85 149 1.7 7.0 0.00 0.00 0.00 72 1014.4
20260905151552 85 152 1.7 7.0 0.00 0.00 0.00 73 1014.4
20260905151028 85 234 0.9 7.0 0.00 0.00 0.00 74 1014.3
20260905150505 84 207 1.7 7.8 0.00 0.00 0.00 74 1014.4
20260905150045 84 160 3.5 7.8 0.00 0.00 0.00 75 1014.5
20260905145524 84 144 2.6 7.0 0.00 0.00 0.00 76 1014.5
20260905145103 83 140 2.6 7.8 0.00 0.00 0.00 79 1014.5
20260905144538 83 140 1.7 7.8 0.00 0.00 0.00 80 1014.5
20260905144013 82 130 1.7 7.8 0.00 0.00 0.00 83 1014.6
20260905143555 82 254 0.9 3.5 0.00 0.00 0.00 84 1014.6
20260905143031 81 136 0.9 6.1 0.00 0.00 0.00 84 1014.6
20260905142507 81 246 0.9 2.6 0.00 0.00 0.00 86 1014.6
20260905142049 81 180 0.0 2.6 0.00 0.00 0.00 87 1014.6
20260905141526 80 180 0.0 3.5 0.00 0.00 0.00 89 1014.6
20260905141006 80 185 0.9 3.5 0.00 0.00 0.00 89 1014.5
20260905140546 79 185 0.0 6.1 0.00 0.00 0.00 90 1014.5
20260905140024 79 140 2.6 7.0 0.00 0.00 0.00 90 1014.5
20260905135502 79 151 1.7 7.8 0.00 0.00 0.00 91 1014.5
20260905135043 78 156 3.5 7.8 0.00 0.00 0.00 91 1014.4
20260905134518 78 184 0.9 6.1 0.00 0.00 0.00 91 1014.3
20260905134059 78 148 2.6 4.3 0.00 0.00 0.00 91 1014.3
20260905133535 77 159 0.9 4.3 0.00 0.00 0.00 92 1014.3
20260905133013 77 149 0.9 4.3 0.00 0.00 0.00 91 1014.3
20260905132552 76 150 1.7 4.3 0.00 0.00 0.00 92 1014.2
20260905132029 76 150 0.0 0.0 0.00 0.00 0.00 92 1014.1
20260905131505 75 150 0.0 0.0 0.00 0.06 0.00 92 1014.0
20260905131046 75 150 0.0 0.0 0.00 0.06 0.00 92 1014.0
20260905130523 75 150 0.0 0.0 0.00 0.06 0.00 92 1013.9
20260905130105 75 150 0.0 0.0 0.00 0.06 0.00 92 1013.8
20260905125538 75 150 0.0 0.0 0.00 0.06 0.00 92 1013.8
20260905125018 75 150 0.0 0.0 0.00 0.06 0.00 92 1013.8
20260905124556 74 150 0.0 0.0 0.00 0.06 0.00 92 1013.7
20260905124031 74 150 0.0 0.0 0.00 0.06 0.00 92 1013.7
20260905123508 74 150 0.0 0.0 0.00 0.06 0.00 92 1013.6
20260905123049 74 150 0.0 0.0 0.00 0.06 0.00 92 1013.5
20260905122529 74 150 0.0 0.0 0.00 0.06 0.00 92 1013.4
20260905122004 74 150 0.0 0.0 0.00 0.06 0.00 92 1013.4
20260905121543 74 150 0.0 0.0 0.00 0.06 0.00 92 1013.4
20260905121020 74 150 0.0 0.0 0.00 0.06 0.00 91 1013.4
20260905120604 74 150 0.0 0.0 0.00 0.06 0.00 91 1013.2
20260905120038 74 150 0.0 0.0 0.00 0.06 0.00 91 1013.2
20260905115515 74 150 0.0 0.0 0.00 0.06 0.00 91 1013.1
20260905115056 74 150 0.0 0.0 0.00 0.06 0.00 91 1013.2
20260905114532 74 150 0.0 0.0 0.00 0.06 0.00 91 1013.2
20260905114009 74 150 0.0 0.0 0.00 0.06 0.00 91 1013.2
20260905113551 74 150 0.0 0.0 0.00 0.06 0.00 91 1013.1
20260905113029 75 150 0.0 0.0 0.00 0.06 0.00 91 1013.1
20260905112504 75 150 0.0 0.0 0.00 0.06 0.00 91 1013.1
20260905112045 75 150 0.0 0.0 0.00 0.06 0.00 91 1013.1
20260905111522 75 150 0.0 0.0 0.00 0.06 0.00 91 1013.0
20260905111102 75 150 0.0 0.0 0.00 0.06 0.00 91 1012.9
20260905110538 75 150 0.0 0.0 0.00 0.06 0.00 91 1012.9
20260905110015 75 150 0.0 0.0 0.00 0.06 0.00 91 1012.8
20260905105556 75 150 0.0 0.0 0.00 0.06 0.00 91 1012.9
20260905105035 75 150 0.0 0.0 0.00 0.06 0.00 90 1012.8
20260905104509 76 150 0.0 0.0 0.00 0.06 0.00 90 1012.8
20260905104050 76 150 0.0 0.0 0.00 0.06 0.00 90 1012.8
20260905103530 76 150 0.0 0.0 0.00 0.06 0.00 90 1012.8
20260905103004 76 150 0.0 0.0 0.00 0.06 0.00 90 1012.9
20260905102544 76 150 0.0 0.0 0.00 0.06 0.00 90 1012.9
20260905102021 76 150 0.0 0.0 0.00 0.06 0.00 90 1012.9
20260905101602 76 150 0.0 0.0 0.00 0.06 0.00 90 1012.9
20260905101038 77 150 0.0 0.0 0.00 0.06 0.00 90 1012.9
20260905100515 77 150 0.0 0.0 0.00 0.06 0.00 90 1012.9
20260905100120 77 150 0.0 0.0 0.00 0.06 0.00 89 1012.9
20260905095534 77 150 0.0 0.0 0.00 0.06 0.00 89 1012.9
20260905095010 77 150 0.0 0.0 0.00 0.06 0.00 89 1012.9
20260905094552 77 150 0.0 0.0 0.00 0.06 0.00 89 1012.8
20260905094028 77 150 0.0 0.0 0.00 0.06 0.00 88 1012.9
20260905093505 77 150 0.0 0.9 0.00 0.06 0.00 88 1012.9
20260905093047 78 150 0.0 1.7 0.00 0.06 0.00 88 1012.9
20260905092523 78 150 0.0 1.7 0.00 0.06 0.00 88 1012.8
20260905092104 78 150 0.0 1.7 0.00 0.06 0.00 88 1012.8
20260905091544 78 150 0.0 2.6 0.00 0.06 0.00 88 1012.8
20260905091018 78 150 0.0 2.6 0.00 0.06 0.00 88 1012.8
20260905090600 78 150 0.0 2.6 0.00 0.06 0.00 88 1012.8
20260905090052 78 150 0.0 2.6 0.00 0.06 0.00 88 1012.9
20260905085514 78 150 0.9 2.6 0.00 0.06 0.00 87 1012.8
20260905085058 78 150 0.0 2.6 0.00 0.06 0.00 87 1012.9
20260905084532 78 150 0.0 5.2 0.00 0.06 0.00 87 1013.0
20260905084012 78 150 0.9 5.2 0.00 0.06 0.00 87 1013.0
20260905083552 78 124 0.0 7.0 0.00 0.06 0.00 87 1013.0
20260905083034 78 124 0.0 7.0 0.00 0.06 0.00 87 1012.9
20260905082501 78 148 0.0 0.9 0.00 0.06 0.00 86 1012.9
20260905082043 78 148 0.0 1.7 0.00 0.06 0.00 86 1012.9
20260905081521 78 148 0.0 1.7 0.00 0.06 0.00 86 1012.9
20260905081101 79 148 0.0 2.6 0.00 0.06 0.00 86 1013.0
20260905080542 79 148 0.9 2.6 0.00 0.06 0.00 85 1013.0
20260905080016 79 148 0.0 5.2 0.00 0.06 0.00 85 1013.0
20260905075557 79 157 0.9 2.6 0.00 0.06 0.00 85 1013.0
20260905075034 79 157 0.9 4.3 0.00 0.06 0.00 85 1013.0
20260905074511 79 157 0.9 4.3 0.00 0.06 0.00 84 1013.0
20260905074053 79 157 0.0 5.2 0.00 0.06 0.00 84 1013.0
20260905073531 79 148 1.7 5.2 0.00 0.06 0.00 83 1013.1
20260905073007 79 170 1.7 4.3 0.00 0.06 0.00 83 1013.1
20260905072549 79 170 0.9 3.5 0.00 0.06 0.00 83 1013.1
20260905072025 79 170 0.9 2.6 0.00 0.06 0.00 83 1013.1
20260905071503 80 170 0.9 3.5 0.00 0.06 0.00 82 1013.2
20260905071047 80 170 0.9 3.5 0.00 0.06 0.00 82 1013.2
20260905070520 80 170 0.9 3.5 0.00 0.06 0.00 82 1013.3
20260905070105 80 170 0.9 6.1 0.00 0.06 0.00 82 1013.3
20260905065539 80 163 2.6 6.1 0.00 0.06 0.00 82 1013.3
20260905065019 80 155 1.7 5.2 0.00 0.06 0.00 81 1013.4
20260905064559 80 158 0.9 4.3 0.00 0.06 0.00 81 1013.3
20260905064038 80 155 0.9 3.5 0.00 0.06 0.00 80 1013.4
20260905063511 80 175 0.9 4.3 0.00 0.06 0.00 80 1013.4
20260905063055 80 141 0.9 6.1 0.00 0.06 0.00 80 1013.5
20260905062530 80 138 0.9 6.1 0.00 0.06 0.00 79 1013.4
20260905062011 80 151 0.0 2.6 0.00 0.06 0.00 79 1013.4
20260905061551 80 151 0.9 2.6 0.00 0.06 0.00 79 1013.5
20260905061027 81 151 0.0 4.3 0.00 0.06 0.00 78 1013.6
20260905060504 81 153 1.7 4.3 0.00 0.06 0.00 78 1013.5
20260905060051 81 156 0.9 4.3 0.00 0.06 0.00 77 1013.6
20260905055524 81 161 2.6 6.1 0.00 0.06 0.00 77 1013.4
20260905055001 81 170 1.7 6.1 0.00 0.06 0.00 77 1013.5
20260905054544 81 148 1.7 5.2 0.00 0.06 0.00 77 1013.5
20260905054021 81 150 0.9 6.1 0.00 0.06 0.00 77 1013.7
20260905053603 81 146 1.7 10.4 0.00 0.06 0.00 76 1013.5
20260905053041 81 149 2.6 10.4 0.00 0.06 0.00 76 1013.4
20260905052517 81 147 4.3 7.8 0.00 0.06 0.00 76 1013.4
20260905052058 81 177 3.5 7.8 0.00 0.06 0.00 76 1013.5
20260905051540 81 153 1.7 6.1 0.00 0.06 0.06 76 1013.6
20260905051013 81 147 0.9 5.2 0.00 0.06 0.06 76 1013.6
20260905050555 81 150 0.9 6.1 0.00 0.06 0.06 76 1013.7
20260905050034 81 150 1.7 6.1 0.00 0.06 0.06 76 1013.7
20260905045510 81 136 1.7 3.5 0.00 0.06 0.06 76 1013.7
20260905045052 81 148 0.9 4.3 0.00 0.06 0.06 76 1013.6
20260905044537 82 148 1.7 4.3 0.00 0.06 0.06 76 1013.6
20260905044007 82 153 0.9 3.5 0.00 0.06 0.06 76 1013.7
20260905043551 82 147 0.9 6.1 0.00 0.06 0.06 76 1013.7
20260905043027 82 154 0.9 5.2 0.00 0.06 0.06 75 1013.6
20260905042503 82 154 1.7 6.1 0.00 0.06 0.06 75 1013.6
20260905042045 82 157 1.7 6.1 0.00 0.06 0.06 75 1013.5
20260905041524 82 139 2.6 4.3 0.00 0.06 0.06 75 1013.5
20260905041105 82 141 1.7 5.2 0.00 0.06 0.06 74 1013.5
20260905040541 82 161 1.7 5.2 0.00 0.06 0.06 74 1013.5
20260905040020 82 199 1.7 5.2 0.00 0.06 0.06 74 1013.5
20260905035601 82 142 1.7 4.3 0.00 0.06 0.06 74 1013.5
20260905035037 82 152 1.7 4.3 0.00 0.06 0.06 74 1013.4
20260905034517 83 153 0.9 4.3 0.00 0.06 0.06 74 1013.4
20260905034059 83 153 1.7 4.3 0.00 0.06 0.06 74 1013.4
20260905033534 83 153 1.7 4.3 0.00 0.06 0.06 74 1013.4
20260905033014 83 159 2.6 6.1 0.00 0.06 0.06 74 1013.3
20260905032556 83 165 1.7 6.1 0.00 0.06 0.06 74 1013.4
20260905032032 83 161 1.7 5.2 0.00 0.06 0.06 74 1013.4
20260905031512 83 144 0.9 2.6 0.00 0.06 0.06 74 1013.3
20260905031058 83 144 0.9 3.5 0.00 0.06 0.06 73 1013.3
20260905030532 84 144 1.7 3.5 0.00 0.06 0.06 73 1013.2
20260905030014 84 138 0.9 3.5 0.00 0.06 0.06 73 1013.2
20260905025555 84 138 1.7 3.5 0.00 0.06 0.06 72 1013.1
20260905025036 84 138 0.9 3.5 0.00 0.06 0.06 72 1013.2
20260905024515 84 138 0.9 4.3 0.00 0.06 0.06 72 1013.1
20260905024055 84 140 1.7 6.1 0.00 0.06 0.06 72 1013.0
20260905023531 84 148 2.6 6.1 0.00 0.06 0.06 71 1013.0
20260905023014 84 137 1.7 6.1 0.00 0.06 0.06 71 1013.0
20260905022551 84 138 1.7 6.1 0.00 0.06 0.06 71 1012.8
20260905022028 84 162 2.6 4.3 0.00 0.06 0.06 71 1012.8
20260905021508 84 152 1.7 4.3 0.00 0.06 0.06 71 1012.8
20260905021051 84 163 2.6 6.1 0.00 0.06 0.06 71 1012.7
20260905020525 85 159 2.6 6.1 0.00 0.06 0.06 71 1012.7
20260905020009 85 144 1.7 6.1 0.00 0.06 0.06 71 1012.6
20260905015546 85 142 2.6 6.1 0.00 0.06 0.06 71 1012.6
20260905015024 85 112 3.5 6.1 0.00 0.06 0.06 70 1012.4
20260905014502 85 133 2.6 6.1 0.00 0.06 0.06 70 1012.3
20260905014044 85 138 2.6 6.1 0.00 0.06 0.06 70 1012.3
20260905013521 85 157 2.6 7.0 0.00 0.06 0.06 70 1012.3
20260905013105 85 138 2.6 8.7 0.00 0.06 0.06 69 1012.3
20260905012544 85 147 3.5 8.7 0.00 0.06 0.06 69 1012.2
20260905012018 85 140 3.5 7.0 0.00 0.06 0.06 68 1012.2
20260905011602 85 157 1.7 5.2 0.00 0.06 0.06 68 1012.1
20260905011038 86 148 1.7 7.0 0.00 0.06 0.06 67 1012.1
20260905010515 86 142 2.6 7.8 0.00 0.06 0.06 67 1012.1
20260905010109 86 140 3.5 7.8 0.00 0.06 0.06 66 1012.0
20260905005536 86 128 2.6 7.8 0.00 0.06 0.06 66 1012.0
20260905005014 86 134 4.3 7.8 0.00 0.06 0.06 66 1012.1
20260905004557 86 152 5.2 8.7 0.00 0.06 0.06 65 1012.0
20260905004037 87 137 3.5 12.2 0.00 0.06 0.06 64 1012.0
20260905003511 87 145 2.6 12.2 0.00 0.06 0.06 63 1012.0
20260905003054 87 166 3.5 10.4 0.00 0.06 0.06 63 1011.8
20260905002531 88 136 5.2 10.4 0.00 0.06 0.06 62 1011.8
20260905002020 88 129 2.6 9.6 0.00 0.06 0.06 61 1011.8
20260905001552 88 123 4.3 10.4 0.00 0.06 0.06 61 1011.7
20260905001023 88 121 5.2 10.4 0.00 0.06 0.06 60 1011.6
20260905000501 89 127 5.2 10.4 0.00 0.06 0.06 59 1011.4
20260905000058 89 135 7.0 10.4 0.00 0.06 0.06 57 1011.4
20260904235524 89 137 5.2 10.4 0.00 0.06 0.06 55 1011.4
20260904235002 90 129 5.2 11.3 0.00 0.06 0.06 54 1011.4
20260904234546 90 128 5.2 11.3 0.00 0.06 0.06 53 1011.5
20260904234023 90 137 4.3 10.4 0.00 0.06 0.06 54 1011.4
20260904233605 91 139 4.3 11.3 0.00 0.06 0.06 54 1011.3
20260904233045 91 144 6.1 11.3 0.00 0.06 0.06 54 1011.3
20260904232520 92 111 6.1 14.8 0.00 0.06 0.06 53 1011.3
20260904232105 94 87 8.7 14.8 0.00 0.06 0.06 51 1011.3
20260904231549 95 110 5.2 10.4 0.00 0.06 0.06 50 1011.3
20260904231019 96 146 1.7 5.2 0.00 0.06 0.06 44 1011.3
20260904230601 96 208 0.9 7.0 0.00 0.06 0.06 42 1011.2
20260904230059 96 152 2.6 7.8 0.00 0.06 0.06 40 1011.2
20260904225518 96 176 2.6 8.7 0.00 0.06 0.06 40 1011.3
20260904225059 96 130 2.6 8.7 0.00 0.06 0.06 39 1011.3
20260904224541 95 159 2.6 9.6 0.00 0.06 0.06 39 1011.3
20260904224018 96 146 1.7 7.0 0.00 0.06 0.06 38 1011.3
20260904223602 96 151 3.5 7.0 0.00 0.06 0.06 37 1011.4
20260904223049 95 207 1.7 8.7 0.00 0.06 0.06 39 1011.4
20260904222517 96 135 4.3 9.6 0.00 0.06 0.06 39 1011.3
20260904222100 95 167 1.7 6.1 0.00 0.06 0.06 40 1011.4
20260904221539 95 149 0.9 12.2 0.00 0.06 0.06 40 1011.4
20260904221016 95 152 2.6 12.2 0.00 0.06 0.06 40 1011.5
20260904220558 95 150 3.5 11.3 0.00 0.06 0.06 39 1011.4
20260904220049 95 160 2.6 9.6 0.00 0.06 0.06 42 1011.5
20260904215517 94 134 4.3 10.4 0.00 0.06 0.06 41 1011.6
20260904215058 94 137 5.2 10.4 0.00 0.06 0.06 41 1011.7
20260904214540 94 131 4.3 9.6 0.00 0.06 0.06 42 1011.7
20260904214017 95 161 3.5 9.6 0.00 0.06 0.06 39 1011.9
20260904213558 95 142 4.3 9.6 0.00 0.06 0.06 38 1011.9
20260904213040 95 105 3.5 7.8 0.00 0.06 0.06 37 1012.0
20260904212516 95 130 5.2 8.7 0.00 0.06 0.06 37 1012.1
20260904212057 94 78 3.5 9.6 0.00 0.06 0.06 38 1012.1
20260904211543 95 149 5.2 9.6 0.00 0.06 0.06 40 1012.2
20260904211015 95 142 3.5 8.7 0.00 0.06 0.06 42 1012.2
20260904210557 95 160 4.3 9.6 0.00 0.06 0.06 42 1012.2
20260904210046 95 134 4.3 9.6 0.00 0.06 0.06 41 1012.3
20260904205515 94 146 4.3 9.6 0.00 0.06 0.06 42 1012.3
20260904205055 94 148 0.9 9.6 0.00 0.06 0.06 41 1012.3
20260904204538 94 139 6.1 12.2 0.00 0.06 0.06 38 1012.4
20260904204014 94 148 3.5 9.6 0.00 0.06 0.06 40 1012.5
20260904203555 94 138 5.2 9.6 0.00 0.06 0.06 39 1012.6
20260904203037 94 132 4.3 8.7 0.00 0.06 0.06 41 1012.6
20260904202515 94 128 4.3 8.7 0.00 0.06 0.06 40 1012.7
20260904202055 94 131 2.6 7.8 0.00 0.06 0.06 41 1012.7
20260904201545 93 147 3.5 7.8 0.00 0.06 0.06 41 1012.8
20260904201014 93 134 1.7 9.6 0.00 0.06 0.06 46 1013.0
20260904200554 93 220 2.6 9.6 0.00 0.06 0.06 43 1013.0